DateTimeUTC,F1_A11,F1_S11,BsB_S11,BsG_S11,BsR_S11,BbsB_S11,BbsG_S11,BbsR_S11,BaB_A11,BaG_A11,BaR_A11,Tu_S11,T_S11,Uu_S11,U_S11,P_S11,T1_A11
2021-11-10T00:00:00Z,00000200,21000000,,,,,,,-000.63,-000.55,-000.21,18.5,25.5,,00.0,0639.7,31.0
2021-11-10T00:01:00Z,00000200,21000000,,,,,,,0000.42,0000.05,0000.11,18.6,25.5,,00.0,0639.7,31.0
2021-11-10T00:02:00Z,00000200,21000000,,,,,,,0000.10,-000.05,-000.39,18.6,25.5,,00.0,0639.7,31.0
2021-11-10T00:03:00Z,00000200,61000000,,,,,,,0000.05,0000.04,0000.36,18.6,25.6,,00.0,0639.7,31.0
2021-11-10T00:04:00Z,00000200,41000000,-000.20,-000.04,0000.14,-000.07,0000.34,0000.09,-000.11,0000.35,-000.02,18.9,25.5,,00.0,0640.5,31.0
2021-11-10T00:05:00Z,00000200,01000000,-001.11,0000.04,-000.05,0000.53,-000.21,0000.32,0000.13,0000.11,-000.10,18.9,25.4,,00.0,0640.5,31.0
2021-11-10T00:06:00Z,00000200,01000000,0000.26,0000.00,0000.09,-000.17,0000.10,0000.16,-000.14,-000.12,0000.17,18.8,25.4,,00.0,0640.5,30.9
2021-11-10T00:07:00Z,00000200,01000000,0000.30,-000.10,0000.01,0000.21,-000.09,0000.21,0000.35,0000.36,0000.47,18.7,25.4,,00.0,0640.5,30.9
2021-11-10T00:08:00Z,00000200,01000000,-000.50,0000.11,0000.13,0000.55,0000.06,0000.09,0000.09,-000.12,0000.08,18.6,25.3,,00.0,0640.4,30.9
2021-11-10T00:09:00Z,00000200,01000000,0000.50,-000.20,0000.04,0001.14,-000.01,-000.23,0000.02,0000.30,0000.06,18.5,25.2,,00.0,0640.4,30.9
2021-11-10T00:10:00Z,00000200,01000000,-000.01,-000.10,0000.03,-000.18,-000.33,0000.16,0000.33,0000.11,0000.27,18.5,25.2,,00.0,0640.4,30.9
2021-11-10T00:11:00Z,00000200,01000000,0000.17,-000.09,-000.03,-000.08,0000.13,-000.10,0000.41,0000.33,0000.35,18.5,25.2,,00.0,0640.4,30.9
2021-11-10T00:12:00Z,00000200,01000000,0000.39,-000.17,-000.02,-000.19,0000.13,0000.34,0000.27,0000.25,0000.01,18.6,25.2,,00.0,0640.4,30.9
2021-11-10T00:13:00Z,00000200,01000000,-000.17,-000.31,-000.01,0000.03,0000.38,-000.06,-000.16,0000.21,-000.01,18.7,25.2,,00.0,0640.4,30.9
2021-11-10T00:14:00Z,00000200,01000000,-000.13,-000.13,-000.07,0000.32,0000.36,-000.04,0000.12,-000.14,0000.22,18.7,25.2,,00.0,0640.4,31.0
2021-11-10T00:15:00Z,00000200,01000000,0000.26,0000.06,-000.02,0000.71,0000.10,0000.27,0000.35,0000.75,0000.20,18.8,25.3,,00.0,0640.3,31.0
2021-11-10T00:16:00Z,00000200,01000000,-000.13,-000.21,0000.09,0000.55,-000.07,0000.14,-000.05,0000.11,0000.25,18.9,25.3,,00.0,0640.3,31.0
2021-11-10T00:17:00Z,00000200,01000000,-000.30,-000.31,0000.14,0000.26,-000.15,-000.18,0000.27,0000.06,0000.18,18.9,25.3,,00.0,0640.3,31.0
2021-11-10T00:18:00Z,00000200,01000000,0000.09,-000.11,0000.40,-000.13,-000.11,0000.05,0000.29,0000.12,0000.29,19.0,25.3,,00.0,0640.3,31.0
2021-11-10T00:19:00Z,00000200,01000000,0000.40,-000.18,0000.07,-000.24,0000.12,-000.09,0000.09,-000.06,-000.18,19.1,25.4,,00.0,0640.3,31.0
2021-11-10T00:20:00Z,00000200,01000000,0000.23,-000.21,0000.27,0000.47,0000.10,-000.03,-000.02,0000.11,0000.23,19.1,25.4,,00.0,0640.3,31.0
2021-11-10T00:21:00Z,00000200,01000000,0000.08,-000.20,-000.32,0000.54,-000.27,-000.04,-000.14,0000.07,0000.34,19.0,25.4,,00.0,0640.3,31.0
2021-11-10T00:22:00Z,00000200,01000000,0000.09,-000.09,0000.35,0000.60,0000.42,0000.13,0000.27,0000.45,-000.13,19.0,25.4,,00.0,0640.3,31.0
2021-11-10T00:23:00Z,00000200,01000000,-000.65,-000.40,0000.01,0001.04,-000.06,0000.14,0000.44,-000.17,0000.32,18.9,25.3,,00.0,0640.3,30.9
2021-11-10T00:24:00Z,00000200,01000000,-000.12,-000.07,0000.34,0000.27,-000.20,-000.07,0000.06,0000.35,-000.37,18.8,25.3,,00.0,0640.3,30.9
2021-11-10T00:25:00Z,00000200,01000000,0000.18,-000.22,-000.15,0000.12,0000.24,0000.00,-000.20,0000.08,0000.48,18.8,25.2,,00.0,0640.3,30.9
2021-11-10T00:26:00Z,00000200,01000000,0000.74,0000.16,-000.18,-000.04,0000.02,0000.20,0000.25,-000.08,0000.01,18.8,25.2,,00.0,0640.3,30.9
2021-11-10T00:27:00Z,00000200,01000000,0000.07,-000.17,0000.04,0000.43,-000.07,0000.10,0000.28,0000.37,0000.30,18.8,25.3,,00.0,0640.2,30.9
2021-11-10T00:28:00Z,00000200,01000000,-000.24,-000.09,0000.18,0000.94,0000.28,0000.21,-000.18,-000.10,0000.05,18.9,25.3,,00.0,0640.2,30.9
2021-11-10T00:29:00Z,00000200,01000000,-000.07,-000.42,0000.14,0000.11,0000.14,0000.16,0000.17,0000.22,0000.04,18.9,25.3,,00.0,0640.2,31.0
2021-11-10T00:30:00Z,00000200,01000000,0000.09,-000.15,0000.03,0000.64,0000.13,0000.20,0000.36,-000.09,-000.01,19.0,25.3,,00.0,0640.3,31.0
2021-11-10T00:31:00Z,00000200,01000000,-000.46,0000.01,0000.63,0000.14,0000.14,0000.55,-000.50,0000.35,-000.06,19.1,25.4,,00.0,0640.3,31.0
2021-11-10T00:32:00Z,00000200,01000000,0000.00,0000.12,0000.14,0000.56,0000.02,0000.06,0000.10,-000.75,-000.49,19.1,25.4,,00.0,0640.3,31.0
2021-11-10T00:33:00Z,00000200,01000000,-000.50,-000.43,0000.04,0000.39,0000.21,0000.11,0000.06,0000.20,0000.23,19.1,25.4,,00.0,0640.3,31.0
2021-11-10T00:34:00Z,00000200,01000000,0000.42,-000.03,0000.07,0000.65,-000.36,-000.31,-000.23,0000.03,0000.23,19.1,25.4,,00.0,0640.3,31.0
2021-11-10T00:35:00Z,00000200,01000000,-000.05,-000.02,-000.05,0000.03,-000.08,0000.18,0000.25,-000.12,-000.14,19.0,25.4,,00.0,0640.2,31.0
2021-11-10T00:36:00Z,00000200,01000000,-000.27,-000.29,0000.00,0000.21,-000.08,-000.01,0000.39,0000.45,0000.28,18.9,25.3,,00.0,0640.2,30.9
2021-11-10T00:37:00Z,00000200,01000000,-000.27,-000.19,0000.14,0000.81,0000.25,0000.15,-000.17,0000.26,-000.01,18.8,25.3,,00.0,0640.2,30.9
2021-11-10T00:38:00Z,00000200,01000000,-000.01,-000.14,0000.17,0000.19,0000.16,0000.10,0000.06,-000.22,0000.35,18.7,25.2,,00.0,0640.2,30.9
2021-11-10T00:39:00Z,00000200,01000000,0000.60,-000.19,-000.02,0000.29,0000.20,0000.18,-000.26,0000.25,-000.36,18.6,25.2,,00.0,0640.2,30.9
2021-11-10T00:40:00Z,00000200,01000000,0000.48,-000.22,0000.17,0000.46,-000.04,0000.51,0000.26,-000.18,-000.10,18.6,25.1,,00.0,0640.2,30.9
2021-11-10T00:41:00Z,00000200,01000000,-000.51,-000.23,0000.16,0000.12,0000.02,0000.16,-000.18,-000.13,-000.15,18.6,25.1,,00.0,0640.2,30.9
2021-11-10T00:42:00Z,00000200,01000000,-000.71,-000.28,0000.04,0000.10,-000.18,-000.20,0000.58,0000.25,0000.39,18.7,25.2,,00.0,0640.2,30.9
2021-11-10T00:43:00Z,00000200,01000000,-000.13,-000.19,0000.32,-000.01,-000.06,-000.06,-000.36,-000.31,-000.23,18.8,25.2,,00.0,0640.3,30.9
2021-11-10T00:44:00Z,00000200,01000000,0000.88,-000.01,0000.16,0000.28,0000.01,-000.13,-000.17,-000.09,0000.30,18.8,25.2,,00.0,0640.3,31.0
2021-11-10T00:45:00Z,00000200,01000000,-000.27,0000.15,0000.19,0000.75,0000.15,0000.33,-000.34,-000.26,-000.60,18.9,25.2,,00.0,0640.3,31.0
2021-11-10T00:46:00Z,00000200,01000000,-000.28,0000.16,-000.16,-000.18,0000.20,0000.13,0000.07,-000.12,-000.13,18.9,25.2,,00.0,0640.4,31.0
2021-11-10T00:47:00Z,00000200,01000000,0000.25,-000.15,0000.18,0000.39,0000.12,0000.19,-001.04,-000.65,-000.75,19.0,25.3,,00.0,0640.5,31.0
2021-11-10T00:48:00Z,00000200,01000000,-000.43,-000.50,-000.01,0000.30,-000.20,-000.16,0000.14,-000.03,-000.15,19.1,25.3,,00.0,0640.5,31.0
2021-11-10T00:49:00Z,00000200,01000000,0000.20,0000.05,0000.15,0000.58,0000.09,-000.22,0000.49,-000.00,0000.01,19.1,25.3,,00.0,0640.5,31.0
2021-11-10T00:50:00Z,00000200,01000000,0000.17,-000.20,-000.02,0000.50,-000.05,0000.01,-000.54,0000.16,0000.01,19.2,25.4,,00.0,0640.5,31.0
2021-11-10T00:51:00Z,00000200,01000000,-000.87,-000.36,-000.18,0000.02,-000.01,-000.00,-000.27,-000.82,-000.62,19.2,25.4,,00.0,0640.5,31.0
2021-11-10T00:52:00Z,00000200,01000000,0000.44,-000.12,-000.06,0000.29,0000.23,0000.22,-000.16,-000.40,0000.05,19.1,25.4,,00.0,0640.5,31.0
2021-11-10T00:53:00Z,00000200,01000000,0000.08,-000.24,0000.21,0000.53,-000.02,0000.12,-000.06,0000.47,-000.01,19.0,25.3,,00.0,0640.4,31.0
2021-11-10T00:54:00Z,00000200,01000000,0000.61,0000.00,0000.39,0000.17,0000.11,0000.28,0000.53,-000.02,0000.25,18.9,25.3,,00.0,0640.4,30.9
2021-11-10T00:55:00Z,00000200,01000000,-000.60,-000.18,0000.13,0000.26,-000.20,0000.23,-000.30,-000.04,0000.16,18.9,25.3,,00.0,0640.4,30.9
2021-11-10T00:56:00Z,00000200,01000000,-000.06,0000.11,-000.17,0000.29,-000.06,-000.21,0000.25,0000.36,0000.04,18.9,25.3,,00.0,0640.3,31.0
2021-11-10T00:57:00Z,00000200,41000000,,,,,,,0000.65,0000.48,0000.29,19.0,25.3,,00.0,0640.3,31.0
2021-11-10T00:58:00Z,00000200,61000000,,,,,,,-000.33,-000.07,-000.09,18.7,25.4,,00.0,0639.4,31.0
2021-11-10T00:59:00Z,00000200,21000000,,,,,,,0000.40,0000.47,0000.48,18.7,25.5,,00.0,0639.4,31.0
